User: anonymous   Login
Location: Albany
(42.6526°N, 73.7562°W)
Time: 22:07:14
(UTC+00:00)
Language:

BREEZE-M R/B - Orbit

View from above orbital plane
View from above orbital plane
View from above satellite
View from above satellite

Ground track
Ground track

The orbit data is extracted from the following two-line orbital elements,

1 38746U 12044C   20027.29786287 +.00003349 +00000-0 +20670-3 0  9996
2 38746 049.6886 140.0943 2405940 221.8411 117.1482 10.50594786271891
Epoch (UTC): 27 January 2020 07:08:55
Eccentricity: 0.2405940
inclination: 49.6886°
perigee height: 309 km
apogee height: 4546 km
right ascension of ascending node: 140.0943°
argument of perigee: 221.8411°
revolutions per day: 10.50594786
mean anomaly at epoch: 117.1482°
orbit number at epoch: 27189

The dashed part of the orbit path shows where the satellite is in the earth's shadow,  

DLR